Wind_Speed
26 28 30 31 32 32 30 28 25 22 20 19 19 20 22 23 24 23 23 23 23 23 24 25 26 26 27 29 30 31 32 34 35 37 38 39 40 40 40 42 45 45 44 42 41 42 43 45 46 47 46 45 43 41 39 36 33 31 28 26 23 21 20 20 19 18 18 17 16
24 26 28 30 30 30 28 27 25 23 22 20 20 19 19 20 20 20 20 21 21 22 22 23 24 25 25 26 27 29 30 32 33 34 34 35 35 36 37 40 43 43 41 38 39 40 42 44 46 46 46 44 42 40 37 34 31 27 23 20 19 19 19 18 17 17 16 15 14
24 25 27 28 29 29 27 24 23 22 21 21 21 21 21 20 18 18 18 18 19 21 22 22 23 23 23 23 23 25 27 29 31 32 33 34 35 36 38 41 41 40 38 37 38 39 41 42 44 45 44 42 40 38 35 31 27 22 18 17 17 17 16 15 14 14 14 13 12
25 27 28 28 29 29 28 25 23 21 19 17 16 17 18 17 16 14 15 16 18 19 21 22 22 22 22 22 22 23 25 27 29 31 33 35 36 37 39 40 40 39 38 39 40 40 39 40 41 42 42 39 36 33 29 25 21 18 15 15 15 14 12 11 12 12 12 11 11
27 28 29 30 30 31 30 29 25 22 19 16 16 16 17 17 17 16 17 17 19 20 22 23 24 24 24 24 24 25 27 29 31 33 34 35 35 35 36 37 39 39 40 42 43 42 39 38 38 39 38 35 32 29 25 23 20 17 15 13 12 10 10 10 10 10 10 11 11
27 29 30 31 31 31 31 30 28 24 21 18 17 18 18 18 18 19 19 19 20 22 24 25 26 26 26 27 27 28 30 32 33 34 34 34 33 33 34 35 37 39 42 45 45 43 40 37 35 34 33 31 29 27 25 23 20 17 15 13 11 10 9 9 9 10 10 11 12
27 28 30 31 31 31 31 31 29 26 24 22 21 20 20 19 20 20 20 20 21 24 26 27 28 28 29 29 30 31 32 32 32 32 32 32 32 32 34 35 36 38 41 43 44 41 38 34 31 29 27 26 25 23 22 20 18 17 16 14 13 11 10 10 10 11 11 12 13
27 28 29 30 31 31 30 30 28 26 25 25 24 23 22 21 21 21 21 20 22 24 27 29 29 30 30 30 31 32 32 31 30 30 31 32 33 34 34 35 35 36 36 37 36 34 30 27 25 22 21 21 21 20 19 17 17 17 17 16 15 13 12 11 11 12 13 13 13
26 27 29 31 31 30 29 29 28 26 26 26 26 26 25 23 23 23 21 20 21 23 26 29 29 29 30 30 31 32 31 31 31 31 33 34 35 35 35 35 34 32 30 29 28 25 23 20 19 19 19 19 19 19 18 17 18 18 18 18 16 15 14 14 14 14 14 14 14
26 27 29 31 32 31 30 29 28 27 26 26 26 26 26 26 25 24 22 20 20 22 26 28 29 29 29 30 31 31 32 32 32 33 35 36 36 35 34 34 32 29 26 25 24 23 21 20 21 21 21 21 21 20 20 19 19 19 18 17 16 15 15 16 16 16 15 15 13
26 26 28 31 33 32 31 29 28 27 27 26 25 25 26 27 27 25 22 20 20 21 24 26 27 27 28 29 30 31 32 32 32 33 34 35 35 34 33 32 30 28 26 25 25 25 24 24 24 24 24 23 23 22 21 20 19 18 17 16 15 16 17 17 18 17 16 15 14
26 25 27 30 32 33 31 29 28 27 27 26 25 25 25 26 27 26 23 21 20 20 22 24 25 26 26 27 29 31 31 31 31 31 33 34 34 33 31 30 29 28 27 26 26 26 26 25 25 25 25 24 23 22 21 19 18 17 16 16 17 18 19 19 19 18 16 15 14
26 25 26 28 31 32 31 28 28 27 27 26 25 25 25 26 27 26 24 22 20 20 21 22 23 24 26 27 29 30 30 30 29 30 32 33 33 32 31 30 29 28 27 26 26 26 26 26 25 25 24 24 23 22 20 19 18 18 19 19 20 21 21 20 19 18 17 16 15
26 25 25 27 31 32 31 29 28 28 28 27 26 25 25 26 27 27 25 23 21 21 21 22 22 24 25 26 27 27 28 28 29 30 32 33 33 32 31 29 28 26 26 25 25 26 26 26 25 25 24 23 23 22 21 21 21 22 23 23 23 23 22 21 19 18 17 16 15
25 24 25 26 30 32 32 30 29 29 29 28 27 26 26 27 27 27 26 24 23 22 22 22 23 24 25 26 25 25 26 27 29 31 32 33 33 32 30 28 27 26 25 26 26 26 26 25 25 24 24 23 23 23 24 24 25 25 25 25 24 23 21 20 19 18 17 16 15
24 24 24 26 28 31 32 31 30 30 30 29 28 27 27 27 28 28 27 25 24 23 23 23 24 26 27 27 26 25 26 26 28 30 32 33 32 31 29 27 26 26 26 26 26 26 25 24 24 24 24 25 25 26 27 27 27 26 25 24 22 21 20 19 18 17 16 15 14
24 23 24 25 28 31 32 31 31 31 31 29 29 29 29 29 29 29 28 26 25 24 23 24 25 27 29 29 29 28 27 26 28 30 32 32 31 30 28 27 26 26 27 27 26 26 25 25 24 25 26 26 27 28 29 28 27 26 25 23 22 20 19 18 17 16 15 14 13
24 23 23 24 28 31 32 32 32 32 32 31 31 31 30 30 30 30 29 27 26 24 23 24 25 28 30 32 32 31 29 26 28 30 32 32 31 29 28 27 27 27 27 27 26 26 26 26 27 27 28 29 29 29 29 28 27 25 24 22 21 20 18 17 16 15 14 13 12
25 23 23 24 26 29 32 32 32 32 32 31 32 32 32 32 32 31 30 28 26 25 24 24 25 28 31 33 35 33 30 27 28 31 33 33 31 30 28 28 27 27 27 27 27 27 28 29 30 30 31 31 30 29 28 27 26 24 23 21 20 19 18 16 15 14 13 12 10
26 24 23 23 24 28 30 32 32 32 32 32 33 34 34 33 33 32 31 29 27 26 25 24 25 29 32 35 37 35 31 27 29 32 34 33 32 31 30 29 28 28 28 28 28 29 30 31 32 33 32 31 30 29 27 26 24 23 22 20 19 18 17 16 14 13 12 11 10
28 25 23 22 23 26 29 32 32 32 32 33 34 35 36 35 34 33 31 30 28 27 26 25 26 29 33 36 38 36 32 29 31 33 34 33 32 32 31 30 29 29 29 30 30 32 33 34 34 34 32 31 29 27 26 24 23 22 20 19 18 17 16 15 14 13 11 10 9
29 27 24 22 22 24 28 31 32 33 33 34 35 37 38 38 36 34 32 30 29 29 28 26 26 29 33 36 38 37 34 31 32 34 34 33 33 33 32 31 30 30 31 31 33 34 35 35 35 33 32 30 28 26 24 23 22 21 19 18 17 16 15 14 13 12 11 10 9
29 28 25 23 21 22 26 30 33 34 34 34 36 38 39 39 37 36 34 33 32 31 29 26 27 29 32 35 38 38 36 34 34 34 34 33 34 34 33 31 31 31 32 33 35 36 37 36 35 33 31 29 27 25 23 22 21 19 19 18 17 16 15 14 13 12 11 9 8
28 27 26 23 21 21 23 28 32 34 35 34 35 37 39 38 37 37 37 36 34 32 30 27 27 29 32 34 37 38 38 36 36 36 35 35 35 35 34 33 33 33 34 35 36 37 37 36 34 32 30 28 26 24 22 21 19 18 17 17 16 15 14 13 12 11 10 9 8
27 26 25 23 21 20 22 26 30 33 35 35 34 35 37 37 37 37 38 38 37 34 31 29 28 30 32 35 37 39 39 38 38 38 37 37 37 36 35 34 35 35 36 37 37 38 37 36 34 32 30 28 26 24 22 20 19 17 17 16 15 15 14 13 12 11 10 9 8
26 25 24 22 21 20 20 24 29 33 35 36 35 35 36 36 36 37 38 39 37 35 32 29 30 32 34 37 39 40 40 40 40 40 39 39 39 38 37 36 37 37 38 39 39 38 37 35 34 32 30 28 26 24 22 20 19 18 16 16 15 14 13 13 12 11 10 9 8
26 25 23 21 20 20 20 22 27 32 35 36 37 38 38 37 36 36 38 39 37 35 32 31 31 32 36 39 41 42 42 41 42 42 41 41 41 40 39 38 39 39 40 40 39 38 36 34 33 31 29 28 26 24 22 21 20 18 17 16 15 14 13 13 12 11 10 9 8
28 26 24 21 20 19 20 21 26 31 36 38 39 40 40 39 38 38 39 40 39 36 34 33 32 33 36 40 43 43 43 43 44 44 43 42 42 41 41 41 41 41 42 41 40 38 35 34 32 30 29 27 25 23 22 21 20 19 18 17 16 15 14 13 12 11 10 10 9
30 27 24 21 19 19 19 20 25 30 36 39 40 42 42 41 40 40 40 42 41 39 36 34 33 34 37 42 44 44 44 44 46 46 45 44 44 43 43 43 42 42 42 41 39 37 35 33 31 29 28 26 25 23 22 21 20 19 18 17 16 15 14 14 13 12 11 10 9
31 28 25 21 18 18 19 20 23 29 35 39 42 42 43 42 42 41 42 44 43 41 39 36 35 36 38 43 45 45 45 46 47 48 48 47 46 46 45 45 44 44 43 41 38 36 34 32 31 29 27 26 24 23 22 21 20 19 18 17 16 15 15 14 13 12 12 11 10
32 29 25 21 18 17 18 19 22 28 34 39 42 43 43 43 43 43 44 45 44 42 40 38 36 36 38 42 46 47 47 48 49 50 49 49 48 48 47 46 45 44 43 40 38 35 34 32 30 29 27 26 24 23 22 21 20 19 18 17 16 16 15 14 13 13 12 11 10
32 29 25 21 17 16 16 17 21 27 34 39 41 42 42 42 43 44 44 44 43 42 41 39 38 37 37 42 46 48 48 50 51 51 51 50 50 49 48 47 46 45 42 40 37 35 33 32 30 29 27 26 25 24 22 22 20 19 18 17 17 16 15 14 14 13 12 11 10
31 28 24 20 17 15 14 15 19 26 33 38 41 42 41 41 42 43 44 43 42 42 42 41 40 38 38 42 47 49 50 51 51 51 51 50 50 49 49 48 47 44 42 39 37 35 33 31 30 29 28 27 25 24 23 22 21 20 19 18 17 16 15 14 13 12 11 10 9
30 27 23 19 16 14 13 13 18 25 33 38 40 41 41 41 42 43 43 42 42 42 43 43 42 39 38 41 47 51 52 52 52 51 51 51 50 50 49 49 47 44 41 39 36 34 33 32 31 30 29 27 26 25 24 23 22 21 19 18 17 16 15 14 13 12 11 10 9
29 26 22 18 15 14 13 13 16 25 34 39 41 41 41 42 43 44 44 43 42 43 44 45 44 40 38 41 47 51 53 53 52 51 51 51 51 50 50 49 47 44 41 38 36 34 33 32 31 30 29 28 27 26 25 24 22 21 20 18 17 16 15 14 12 11 10 9 9
28 26 22 17 14 13 13 13 16 23 33 40 43 43 44 45 45 45 44 43 43 44 46 47 45 41 40 43 49 53 54 54 53 52 52 51 51 51 50 49 46 43 41 38 36 35 34 33 32 31 30 29 28 27 26 24 23 21 20 18 17 16 15 13 12 11 10 9 9
28 26 22 18 15 13 13 13 15 22 32 40 44 46 46 46 46 45 44 44 44 45 47 48 46 43 43 46 51 54 55 55 54 53 52 52 52 51 50 48 46 43 41 38 37 35 34 33 32 31 31 30 29 28 26 25 23 22 20 19 17 16 14 13 12 11 10 10 9
26 24 22 19 15 13 13 14 16 22 30 38 42 45 46 45 44 43 43 44 44 46 48 49 47 45 45 49 52 54 54 55 54 53 52 52 52 51 50 48 46 43 41 39 38 36 34 33 32 32 31 30 29 28 27 25 24 22 20 19 17 16 14 13 12 11 10 10 9
24 22 20 19 16 14 14 15 17 22 29 36 41 44 45 44 42 42 42 43 44 46 49 49 48 47 48 51 53 53 53 54 53 52 52 52 51 50 49 47 45 44 42 40 38 36 34 33 32 32 31 30 29 28 27 25 24 22 20 19 17 15 14 12 11 11 10 10 9
23 20 19 17 16 15 15 16 18 22 28 35 40 43 44 43 42 41 41 43 44 46 48 49 48 47 49 52 54 53 52 52 52 51 50 51 50 49 47 46 45 44 42 40 38 36 34 33 32 32 31 30 29 28 26 25 24 22 20 18 16 15 13 12 11 10 10 10 9
22 20 18 17 17 16 16 17 19 23 28 35 40 43 43 42 41 41 42 43 44 45 46 47 47 47 49 52 54 53 52 52 51 50 49 49 49 48 46 45 44 43 41 39 37 36 34 33 33 32 31 30 29 28 26 25 23 21 19 17 15 14 12 11 11 10 10 9 9
Wind_Direction
311 311 309 306 300 293 286 280 274 267 261 258 259 259 255 248 242 237 233 230 228 227 228 231 232 233 232 231 229 226 225 223 222 221 220 220 220 220 220 221 222 223 222 218 213 208 203 201 199 198 197 197 197 197 197 198 199 201 204 206 208 211 214 218 221 224 225 224 223
304 304 304 303 300 295 288 282 277 273 271 270 273 274 270 261 252 247 245 244 242 241 241 242 243 242 240 237 233 229 226 224 222 221 220 220 221 223 224 224 223 222 218 212 204 198 194 192 191 190 190 191 191 191 192 194 196 198 200 203 206 209 212 214 217 218 218 217 217
298 297 298 299 298 296 292 287 283 281 280 278 273 269 266 263 258 255 255 256 255 255 253 252 250 247 243 239 235 231 228 226 224 222 221 220 222 224 225 225 223 219 212 203 194 188 185 184 184 184 184 185 186 187 188 189 190 190 193 198 203 206 208 210 213 213 213 212 214
294 292 291 292 293 293 291 288 284 281 279 275 268 259 255 254 254 255 256 256 256 256 255 253 249 244 239 236 234 232 230 229 229 228 225 222 219 218 219 219 216 210 202 194 186 182 179 179 179 179 180 180 180 179 179 178 176 177 185 194 198 200 204 208 211 212 212 213 215
292 291 288 287 288 289 288 286 281 276 271 265 256 246 241 242 245 248 249 249 251 252 251 249 244 238 234 232 231 231 231 231 232 230 224 218 213 208 205 204 202 198 192 187 184 181 180 178 177 176 174 172 169 166 164 163 162 167 176 184 190 196 203 209 212 214 215 216 217
290 288 287 284 283 284 285 283 279 273 267 260 249 239 233 234 238 242 245 247 249 249 246 242 238 234 230 228 228 228 228 227 225 222 216 210 203 197 192 189 187 186 186 185 185 185 184 181 177 171 166 162 158 156 156 156 158 161 165 171 181 194 206 212 215 216 216 215 215
289 285 283 281 279 280 281 280 277 272 265 259 249 240 234 234 236 240 245 250 250 245 240 236 232 229 226 224 222 221 219 216 212 209 205 199 192 186 182 180 179 180 181 183 185 186 185 182 175 166 158 152 149 149 152 157 163 167 167 169 177 189 203 212 214 214 213 211 210
289 282 277 276 275 276 277 277 273 268 263 258 251 244 239 237 238 242 248 252 248 241 236 232 229 226 224 221 217 213 209 204 199 196 193 188 182 178 175 174 174 175 177 179 181 181 180 178 175 168 160 153 149 149 155 167 179 182 178 173 175 183 195 206 210 210 208 207 206
288 279 273 271 271 272 272 272 268 263 260 257 253 247 242 239 240 244 248 250 247 240 234 229 226 225 224 221 216 210 205 201 196 191 186 181 176 173 173 173 173 174 175 177 178 179 180 183 185 183 178 171 165 166 173 185 192 188 180 173 172 179 190 200 206 206 204 203 202
289 279 271 268 267 268 268 268 265 261 258 255 253 249 246 243 243 244 247 248 246 239 232 227 225 224 223 221 217 213 209 205 200 193 186 179 176 174 175 176 177 178 180 183 186 189 193 195 195 192 188 183 180 182 186 191 189 182 174 169 171 180 191 198 202 201 199 197 195
291 280 270 265 264 265 265 263 261 258 255 252 248 246 245 243 242 242 243 243 241 235 230 228 225 223 222 220 218 216 214 210 205 198 190 183 181 180 181 183 185 188 190 192 194 196 197 196 194 190 186 184 184 185 185 183 177 170 165 165 172 183 192 196 198 196 191 187 184
292 283 271 263 261 261 261 259 258 255 250 246 243 241 240 239 239 237 236 234 233 231 228 226 224 222 220 218 215 216 217 212 207 200 194 189 187 188 189 192 194 195 196 195 194 193 191 189 187 183 181 179 179 177 175 170 164 161 161 168 177 186 191 193 190 186 180 175 171
293 285 273 262 258 257 256 255 255 252 246 241 237 236 236 235 235 232 229 227 225 223 221 219 219 218 218 217 211 213 216 210 204 199 194 192 191 192 194 195 196 195 194 191 189 186 183 180 177 175 173 171 169 167 164 161 159 162 167 175 180 183 184 182 178 173 168 165 162
293 286 275 263 256 254 253 252 252 250 245 239 234 232 232 231 230 227 224 221 218 216 213 211 212 214 217 220 220 216 210 204 199 195 192 191 192 193 193 193 192 191 188 185 181 177 173 170 168 166 166 164 163 161 160 161 163 167 171 174 175 174 172 169 165 162 160 158 157
292 287 277 265 255 251 251 251 249 247 244 239 233 230 230 228 226 223 220 217 213 210 208 205 206 210 215 219 216 209 202 197 194 193 191 190 191 191 191 189 188 185 181 177 172 168 164 162 161 162 162 162 162 161 162 163 165 166 168 168 166 163 161 159 157 155 154 154 154
291 288 279 267 254 248 247 248 247 244 241 237 232 228 226 224 222 220 217 212 206 203 203 202 204 206 209 210 205 198 192 190 190 191 190 189 189 188 187 185 183 179 175 169 164 161 160 160 161 163 163 163 162 161 161 161 161 161 160 159 157 155 153 152 151 150 150 151 151
289 288 281 269 256 247 244 244 243 242 239 235 230 226 223 221 218 216 214 209 204 202 202 202 203 203 202 200 195 190 185 185 187 188 189 188 187 185 183 181 178 173 168 163 160 159 160 163 164 165 163 162 160 159 158 157 156 155 155 154 152 150 149 147 147 147 148 148 149
286 285 282 271 260 250 243 242 240 239 238 234 228 224 221 218 215 213 211 209 206 203 202 202 203 203 199 194 189 185 183 181 184 186 187 186 185 182 180 178 174 169 164 161 159 160 162 164 164 163 161 159 157 156 155 154 153 152 151 150 148 147 146 146 146 146 146 147 147
283 283 281 274 263 253 245 240 237 237 236 232 227 222 219 217 215 212 210 208 207 205 203 203 204 203 199 193 188 185 182 181 182 183 184 184 183 181 179 176 172 167 163 161 162 162 163 163 161 159 158 157 156 155 154 152 151 150 149 148 147 146 146 146 146 146 146 146 145
282 280 281 277 267 256 247 241 237 236 235 232 226 221 218 216 215 213 211 208 207 205 204 203 205 204 200 194 189 186 184 182 181 182 182 182 181 180 178 175 171 167 164 164 164 164 162 161 159 158 157 156 155 154 153 151 150 149 148 147 147 147 147 147 148 148 148 147 146
282 279 280 280 271 260 250 243 238 236 235 232 226 221 218 216 215 215 213 211 207 204 202 203 206 205 201 195 191 188 185 183 182 182 182 182 181 180 178 175 172 168 166 165 165 163 161 160 159 158 157 157 156 154 153 151 150 149 149 149 149 149 150 150 151 151 150 149 148
282 279 279 281 276 265 253 244 239 236 235 232 227 222 218 216 215 215 215 214 209 203 201 204 207 206 203 197 192 189 186 183 183 183 183 182 181 180 179 176 173 170 168 167 165 163 162 160 160 159 159 158 157 155 154 153 152 152 152 152 152 153 154 155 155 155 154 153 152
283 280 279 281 278 269 257 247 240 237 235 232 226 220 216 214 213 214 214 213 209 204 200 203 207 208 204 199 193 189 185 184 184 184 184 182 181 180 179 178 175 172 170 168 166 165 163 162 162 162 161 160 159 157 156 156 155 155 156 156 157 158 158 159 159 158 158 157 157
285 281 279 280 278 271 260 249 241 237 235 232 226 219 214 212 211 210 211 211 209 204 201 203 207 208 204 198 193 189 186 184 185 185 184 182 181 181 180 180 177 175 172 170 169 168 167 166 165 164 163 162 161 160 159 159 159 159 160 161 162 162 162 162 162 162 162 162 161
290 284 280 279 278 272 260 250 241 236 234 231 226 219 214 212 211 210 210 209 208 205 203 204 207 206 201 196 193 190 187 185 185 185 183 182 182 182 182 181 179 177 174 173 172 172 172 171 169 167 166 165 164 163 163 163 163 164 165 165 166 166 166 166 166 166 166 167 167
297 291 284 279 277 271 260 248 239 234 231 229 225 220 215 214 215 214 211 209 208 207 206 206 208 205 200 196 193 190 188 187 186 185 183 181 182 183 183 183 181 178 176 175 175 176 176 175 173 171 169 168 167 166 166 166 167 168 169 169 170 170 170 170 170 171 172 173 174
303 299 292 282 276 269 258 246 237 231 227 225 222 220 218 217 218 216 213 211 209 209 208 208 209 205 200 195 193 191 189 188 186 185 183 182 182 183 184 184 182 180 178 177 177 178 178 177 176 175 173 171 170 169 169 169 170 171 172 173 174 174 175 175 175 176 178 179 182
306 304 299 289 276 266 255 244 234 227 223 221 220 219 219 219 218 216 214 212 211 210 209 208 209 205 200 195 193 192 190 187 185 184 182 182 182 184 184 184 183 181 179 178 178 179 179 178 177 176 175 173 172 171 171 172 173 174 175 177 177 178 179 180 181 182 184 187 189
308 307 304 294 277 263 252 242 232 225 220 218 218 218 219 219 218 216 214 212 211 211 210 209 208 206 201 196 194 192 189 187 184 182 181 181 182 184 185 185 183 181 179 179 179 179 179 178 178 177 176 175 174 174 175 176 177 177 178 180 181 182 182 184 185 188 190 193 196
311 310 307 298 280 263 250 240 230 223 218 216 216 217 218 218 218 217 215 212 211 212 213 211 209 206 202 197 194 191 188 186 183 182 181 181 182 184 184 184 182 180 179 179 179 179 179 179 178 178 177 177 177 177 178 179 180 181 182 183 184 185 187 188 190 193 196 198 201
315 313 309 300 284 265 249 237 228 221 217 214 214 215 217 218 218 217 216 214 213 215 216 215 211 208 204 199 194 190 187 185 183 181 181 181 182 183 184 183 181 179 179 179 179 180 180 180 179 179 179 179 180 181 181 182 183 185 186 187 188 189 191 193 195 198 201 203 206
317 316 311 301 287 268 250 236 227 220 215 213 213 214 215 216 218 217 216 215 214 215 216 216 212 209 206 200 194 189 186 184 183 182 181 181 182 183 183 182 180 179 178 179 180 181 181 181 181 181 181 182 183 184 184 185 186 187 188 190 191 192 194 197 199 202 205 208 211
319 318 313 301 286 270 253 236 225 218 214 212 212 213 214 216 217 216 215 214 214 215 216 215 212 209 206 201 194 189 185 184 183 182 181 182 182 183 182 181 179 179 179 179 180 181 182 182 182 183 183 184 185 186 187 187 188 189 190 191 193 194 196 199 202 205 208 212 217
320 319 314 301 284 269 256 239 225 218 214 213 212 212 214 216 216 215 214 215 217 218 218 215 212 209 207 202 194 188 185 184 183 182 182 182 183 183 182 180 179 179 179 180 181 182 183 184 184 185 185 186 186 187 188 190 191 192 193 194 195 197 198 201 204 207 211 216 222
319 318 313 301 282 266 254 240 226 218 214 214 213 214 215 216 216 215 216 217 219 220 218 214 210 207 205 201 193 187 184 184 183 183 183 183 183 183 182 180 179 179 180 181 182 184 185 186 187 187 187 188 188 189 190 192 193 194 195 196 198 199 200 202 205 209 213 220 227
316 315 312 301 281 262 249 238 227 218 215 214 214 214 213 213 214 215 217 218 219 218 215 210 205 203 200 196 190 186 184 184 183 183 183 184 184 183 182 181 180 180 181 182 184 186 187 188 189 189 189 190 190 190 192 193 194 195 196 198 199 201 202 204 206 211 216 223 231
315 313 310 301 282 259 243 234 227 220 216 214 214 212 211 210 211 212 215 217 217 216 212 207 202 200 197 193 187 184 184 184 184 184 184 184 184 183 182 181 181 181 182 184 186 187 189 190 191 191 191 192 192 192 193 194 194 196 197 198 199 201 202 204 208 213 220 226 234
314 310 306 299 283 261 241 230 226 221 217 214 214 211 210 210 210 210 212 216 216 213 210 205 202 200 197 191 185 183 184 185 184 184 185 185 184 184 183 182 182 182 184 186 187 189 190 192 193 193 194 194 194 194 195 195 196 196 198 198 199 201 203 206 210 216 222 229 236
311 305 300 293 281 262 242 228 223 219 216 214 213 211 209 210 211 211 213 215 216 214 210 206 203 200 195 188 182 181 183 185 185 185 185 185 184 184 183 183 183 184 185 187 189 190 192 194 195 196 196 196 197 197 197 197 197 198 199 199 200 202 205 209 213 219 225 232 238
309 300 292 284 275 261 245 230 221 216 215 213 211 209 209 211 211 213 214 214 214 213 211 208 203 198 192 184 180 180 183 185 186 186 186 185 184 184 184 184 184 185 186 188 190 191 194 196 197 198 198 198 199 199 199 199 199 199 199 200 201 203 206 212 217 222 227 233 239
309 298 285 274 265 256 245 232 221 215 212 211 209 209 211 213 213 213 213 212 211 210 209 206 201 194 187 181 179 180 183 185 186 187 187 186 185 184 185 186 186 186 187 188 190 193 195 197 199 200 200 199 199 200 201 201 201 200 200 201 203 205 210 215 221 226 230 235 240
Height
1431 1430 1429 1428 1426 1426 1425 1423 1422 1422 1421 1421 1421 1421 1421 1421 1421 1421 1421 1421 1421 1421 1421 1422 1423 1424 1425 1426 1426 1427 1427 1428 1429 1429 1430 1431 1432 1433 1434 1436 1439 1442 1445 1446 1447 1448 1449 1451 1454 1456 1458 1461 1463 1465 1467 1469 1471 1473 1474 1475 1476 1478 1480 1481 1481 1482 1484 1485 1486
1428 1428 1427 1426 1426 1425 1424 1423 1422 1421 1421 1421 1421 1421 1421 1421 1421 1421 1421 1421 1421 1421 1421 1422 1422 1423 1424 1425 1426 1426 1427 1428 1429 1430 1431 1432 1432 1433 1434 1435 1437 1441 1444 1446 1447 1449 1450 1451 1452 1453 1455 1457 1459 1461 1464 1466 1468 1470 1471 1473 1475 1477 1478 1479 1480 1481 1482 1483 1484
1426 1426 1426 1425 1424 1424 1423 1422 1421 1420 1420 1419 1419 1419 1420 1420 1420 1420 1421 1421 1421 1421 1421 1421 1421 1421 1422 1422 1424 1425 1426 1427 1428 1430 1431 1431 1431 1432 1433 1434 1436 1439 1442 1446 1448 1449 1450 1450 1450 1450 1451 1453 1456 1458 1461 1463 1466 1468 1470 1472 1474 1475 1476 1477 1478 1480 1481 1481 1482
1425 1424 1424 1424 1423 1422 1422 1421 1420 1419 1418 1417 1417 1417 1417 1418 1418 1419 1419 1420 1419 1419 1419 1418 1418 1418 1418 1419 1421 1422 1424 1426 1427 1429 1430 1430 1430 1430 1431 1432 1435 1437 1441 1444 1447 1449 1450 1449 1448 1447 1448 1450 1453 1456 1459 1461 1464 1466 1469 1471 1473 1474 1475 1476 1477 1478 1479 1481 1481
1423 1423 1422 1422 1421 1421 1420 1419 1419 1418 1417 1416 1416 1416 1415 1415 1416 1416 1416 1417 1417 1417 1416 1416 1416 1416 1416 1416 1417 1419 1421 1422 1424 1426 1427 1428 1428 1429 1430 1431 1432 1435 1438 1442 1445 1447 1448 1447 1446 1445 1446 1448 1450 1453 1456 1459 1462 1465 1468 1470 1471 1472 1474 1475 1476 1477 1479 1480 1481
1422 1421 1420 1419 1419 1418 1417 1417 1417 1416 1416 1415 1415 1414 1414 1413 1413 1414 1414 1414 1415 1415 1414 1414 1414 1414 1414 1414 1415 1416 1417 1419 1421 1423 1424 1426 1427 1429 1430 1431 1432 1434 1437 1440 1443 1446 1447 1447 1446 1445 1445 1446 1448 1451 1453 1456 1459 1462 1464 1466 1469 1471 1473 1474 1476 1477 1478 1479 1480
1420 1419 1419 1417 1416 1416 1415 1415 1414 1414 1414 1414 1414 1413 1413 1412 1412 1412 1412 1412 1412 1412 1412 1412 1412 1411 1411 1412 1413 1414 1415 1417 1419 1421 1422 1425 1427 1429 1431 1432 1434 1435 1437 1439 1442 1444 1446 1448 1448 1447 1447 1448 1449 1451 1454 1456 1458 1461 1462 1464 1467 1470 1472 1473 1475 1476 1477 1478 1479
1418 1418 1417 1416 1415 1413 1413 1412 1412 1412 1411 1411 1412 1412 1411 1411 1410 1410 1410 1410 1410 1410 1410 1410 1410 1410 1410 1410 1411 1412 1414 1416 1418 1420 1422 1424 1426 1429 1431 1433 1435 1436 1438 1440 1442 1444 1446 1448 1450 1451 1451 1452 1453 1455 1457 1459 1460 1461 1462 1464 1466 1468 1471 1473 1474 1476 1476 1477 1478
1416 1416 1416 1414 1413 1412 1411 1411 1410 1410 1410 1409 1410 1410 1409 1409 1408 1408 1408 1408 1408 1408 1408 1408 1409 1409 1409 1409 1410 1411 1412 1414 1416 1419 1421 1423 1426 1428 1431 1433 1435 1437 1439 1441 1443 1446 1447 1449 1451 1452 1453 1454 1455 1456 1458 1459 1460 1461 1462 1464 1465 1467 1470 1472 1474 1475 1476 1477 1477
1414 1414 1414 1412 1411 1410 1410 1409 1409 1408 1408 1407 1407 1407 1407 1406 1406 1406 1406 1406 1406 1406 1406 1406 1407 1407 1408 1408 1409 1409 1410 1412 1414 1417 1420 1423 1426 1428 1431 1433 1435 1437 1440 1442 1444 1446 1448 1449 1451 1452 1453 1454 1455 1456 1457 1458 1459 1461 1462 1463 1464 1466 1469 1471 1473 1474 1475 1476 1477
1412 1411 1411 1410 1409 1408 1407 1407 1407 1406 1406 1406 1405 1405 1405 1404 1404 1404 1404 1404 1404 1404 1404 1405 1405 1406 1406 1407 1408 1409 1409 1410 1412 1416 1419 1423 1426 1429 1431 1433 1436 1438 1440 1441 1443 1445 1446 1448 1449 1450 1451 1452 1453 1454 1456 1457 1458 1459 1461 1462 1464 1466 1469 1471 1472 1473 1474 1475 1476
1409 1409 1408 1408 1406 1406 1405 1405 1405 1405 1404 1403 1403 1402 1402 1402 1402 1402 1402 1402 1402 1402 1403 1403 1404 1405 1406 1406 1407 1408 1409 1410 1411 1414 1418 1421 1425 1428 1431 1433 1435 1437 1438 1440 1441 1443 1444 1446 1447 1448 1449 1451 1451 1453 1454 1455 1456 1458 1459 1461 1464 1466 1468 1470 1471 1472 1473 1474 1475
1406 1406 1406 1406 1404 1403 1403 1402 1403 1403 1402 1401 1401 1400 1400 1400 1400 1400 1400 1400 1400 1400 1401 1402 1403 1404 1405 1406 1407 1408 1409 1411 1412 1414 1416 1419 1423 1426 1429 1432 1434 1436 1437 1439 1440 1441 1443 1444 1446 1447 1448 1449 1451 1451 1453 1454 1455 1457 1459 1462 1464 1466 1468 1469 1470 1471 1472 1473 1474
1404 1403 1403 1403 1402 1401 1400 1400 1400 1400 1400 1399 1399 1398 1398 1398 1398 1398 1398 1398 1398 1399 1399 1401 1402 1403 1404 1405 1406 1408 1410 1411 1412 1414 1415 1418 1421 1424 1428 1431 1433 1435 1437 1438 1440 1441 1442 1443 1445 1446 1447 1448 1450 1451 1452 1453 1455 1457 1460 1462 1464 1465 1467 1468 1469 1470 1471 1472 1473
1402 1401 1400 1401 1400 1399 1398 1397 1397 1397 1397 1397 1397 1396 1396 1396 1396 1396 1396 1396 1397 1397 1398 1399 1400 1401 1403 1405 1406 1409 1411 1412 1413 1414 1415 1418 1420 1423 1426 1429 1431 1434 1436 1437 1438 1440 1441 1442 1444 1445 1447 1448 1449 1450 1451 1453 1455 1457 1460 1461 1463 1464 1466 1466 1468 1469 1470 1471 1472
1399 1398 1398 1398 1398 1397 1396 1395 1395 1395 1395 1395 1395 1395 1394 1394 1394 1395 1395 1396 1396 1396 1397 1398 1399 1400 1402 1404 1407 1409 1411 1412 1413 1414 1416 1418 1420 1423 1425 1428 1430 1432 1434 1436 1437 1439 1440 1442 1443 1445 1446 1447 1448 1450 1451 1453 1455 1457 1459 1461 1462 1463 1464 1466 1466 1468 1469 1470 1471
1396 1396 1396 1395 1395 1395 1393 1393 1393 1393 1392 1392 1393 1392 1392 1392 1393 1393 1393 1394 1395 1395 1395 1396 1398 1399 1401 1404 1406 1409 1410 1411 1413 1414 1416 1418 1420 1422 1425 1427 1429 1431 1433 1434 1436 1437 1439 1441 1443 1445 1446 1447 1449 1450 1452 1453 1455 1457 1458 1460 1461 1462 1463 1465 1466 1467 1468 1469 1470
1394 1393 1393 1393 1392 1392 1391 1391 1391 1390 1390 1390 1390 1390 1390 1391 1391 1391 1391 1392 1393 1393 1394 1395 1396 1398 1400 1402 1405 1407 1409 1411 1412 1414 1416 1417 1420 1422 1424 1426 1428 1430 1431 1433 1434 1436 1438 1440 1442 1444 1446 1448 1449 1451 1452 1453 1455 1456 1458 1459 1460 1461 1462 1464 1465 1466 1467 1468 1469
1391 1390 1390 1390 1390 1389 1389 1389 1388 1388 1388 1388 1387 1387 1388 1389 1389 1389 1390 1391 1391 1392 1392 1394 1395 1396 1398 1401 1404 1406 1408 1410 1411 1413 1415 1417 1419 1421 1423 1426 1427 1429 1430 1432 1433 1436 1437 1439 1441 1443 1446 1448 1449 1451 1452 1453 1454 1456 1457 1458 1459 1461 1462 1463 1464 1465 1466 1467 1468
1388 1387 1387 1387 1387 1387 1387 1386 1386 1386 1386 1386 1386 1386 1386 1386 1387 1388 1388 1389 1390 1391 1392 1392 1394 1395 1397 1400 1402 1405 1407 1409 1411 1412 1414 1416 1419 1421 1423 1424 1426 1428 1429 1431 1433 1435 1437 1439 1441 1443 1446 1447 1449 1450 1451 1452 1454 1455 1456 1457 1459 1460 1461 1462 1463 1464 1466 1466 1467
1385 1384 1384 1383 1384 1384 1384 1384 1385 1385 1385 1384 1384 1384 1384 1384 1385 1386 1387 1388 1389 1390 1391 1391 1392 1393 1395 1397 1401 1403 1406 1408 1410 1412 1414 1416 1418 1420 1422 1424 1425 1427 1429 1431 1432 1434 1436 1439 1441 1443 1445 1447 1448 1450 1451 1452 1453 1454 1456 1457 1458 1459 1460 1461 1462 1464 1465 1466 1466
1381 1381 1380 1380 1380 1380 1381 1381 1381 1382 1382 1382 1382 1382 1382 1382 1382 1384 1385 1386 1387 1388 1389 1390 1391 1392 1393 1395 1398 1401 1404 1406 1409 1411 1413 1415 1417 1420 1421 1423 1425 1426 1428 1430 1432 1434 1436 1439 1441 1443 1445 1446 1448 1449 1450 1451 1452 1454 1455 1456 1457 1458 1460 1461 1462 1463 1464 1465 1466
1378 1378 1377 1376 1376 1376 1377 1377 1377 1378 1380 1381 1381 1380 1380 1380 1380 1381 1383 1385 1386 1386 1387 1389 1390 1391 1392 1394 1396 1400 1402 1405 1407 1410 1413 1415 1417 1419 1421 1423 1425 1426 1428 1430 1431 1434 1436 1438 1440 1442 1444 1445 1447 1448 1450 1451 1452 1453 1454 1455 1456 1457 1459 1460 1461 1462 1463 1464 1464
1376 1375 1374 1373 1373 1373 1373 1373 1373 1374 1376 1378 1379 1378 1378 1379 1379 1380 1381 1382 1384 1385 1386 1387 1389 1390 1391 1393 1395 1398 1400 1403 1406 1409 1412 1414 1416 1419 1421 1422 1424 1426 1427 1429 1431 1433 1435 1437 1439 1441 1442 1444 1446 1447 1449 1450 1451 1452 1453 1454 1455 1456 1457 1458 1460 1461 1461 1462 1463
1372 1371 1371 1370 1369 1369 1369 1369 1369 1371 1372 1375 1376 1376 1377 1377 1378 1378 1379 1380 1382 1383 1384 1386 1387 1388 1390 1392 1394 1396 1398 1401 1404 1407 1410 1413 1416 1418 1420 1422 1423 1425 1427 1429 1431 1433 1435 1436 1438 1439 1441 1443 1445 1446 1447 1449 1450 1451 1452 1453 1454 1455 1456 1457 1458 1459 1460 1461 1462
1370 1368 1367 1366 1366 1366 1366 1366 1366 1367 1369 1372 1374 1375 1375 1376 1376 1377 1378 1379 1380 1381 1383 1384 1385 1386 1388 1390 1392 1394 1397 1400 1402 1405 1408 1411 1414 1417 1419 1421 1422 1424 1426 1428 1430 1432 1434 1436 1437 1439 1440 1441 1443 1445 1446 1448 1449 1450 1451 1452 1453 1454 1455 1456 1457 1458 1459 1460 1461
1366 1365 1364 1363 1363 1362 1362 1362 1363 1364 1366 1368 1371 1372 1373 1374 1375 1376 1376 1377 1378 1380 1381 1383 1383 1384 1386 1388 1391 1393 1395 1398 1401 1404 1406 1409 1412 1415 1417 1419 1421 1423 1425 1427 1430 1432 1434 1435 1437 1438 1439 1441 1442 1444 1445 1446 1448 1449 1450 1451 1452 1453 1454 1455 1456 1457 1458 1459 1460
1364 1362 1361 1360 1360 1359 1359 1359 1361 1361 1363 1365 1367 1369 1371 1372 1373 1374 1375 1376 1377 1378 1380 1381 1382 1383 1384 1387 1389 1391 1394 1397 1400 1402 1405 1408 1411 1413 1416 1418 1420 1422 1424 1426 1429 1431 1433 1434 1436 1437 1439 1440 1441 1443 1444 1445 1446 1448 1449 1450 1451 1452 1453 1454 1455 1456 1457 1458 1459
1361 1360 1359 1357 1357 1356 1356 1356 1357 1359 1360 1362 1364 1366 1368 1370 1371 1372 1373 1374 1375 1376 1378 1379 1380 1381 1383 1385 1387 1390 1392 1395 1398 1401 1403 1406 1409 1412 1414 1416 1419 1421 1423 1426 1428 1430 1432 1433 1435 1436 1438 1439 1440 1442 1443 1444 1446 1446 1448 1449 1450 1451 1452 1453 1454 1455 1456 1457 1458
1358 1357 1356 1355 1354 1354 1353 1353 1354 1356 1358 1359 1361 1363 1365 1367 1368 1369 1371 1371 1373 1374 1376 1377 1378 1379 1381 1383 1385 1388 1391 1394 1396 1399 1401 1404 1407 1410 1413 1415 1417 1420 1422 1425 1427 1429 1431 1432 1434 1435 1436 1438 1439 1441 1442 1443 1444 1445 1446 1448 1449 1450 1451 1451 1453 1454 1455 1456 1456
1356 1354 1353 1352 1352 1351 1351 1351 1352 1354 1356 1357 1358 1360 1362 1364 1365 1366 1367 1369 1370 1372 1373 1375 1376 1377 1379 1381 1383 1386 1389 1392 1395 1397 1400 1402 1405 1408 1411 1414 1416 1419 1421 1424 1426 1427 1429 1431 1432 1434 1435 1437 1438 1439 1441 1442 1443 1444 1445 1446 1447 1448 1450 1451 1451 1452 1453 1454 1455
1353 1352 1351 1350 1349 1349 1349 1349 1350 1352 1353 1355 1356 1357 1359 1361 1362 1363 1365 1366 1368 1370 1371 1372 1374 1375 1377 1379 1381 1384 1387 1391 1393 1395 1398 1401 1404 1407 1410 1412 1415 1417 1420 1422 1424 1426 1428 1429 1431 1432 1434 1435 1437 1438 1439 1441 1442 1443 1444 1445 1446 1447 1448 1449 1451 1451 1452 1453 1454
1351 1350 1349 1348 1347 1347 1347 1347 1348 1350 1351 1352 1353 1355 1356 1358 1360 1361 1363 1364 1366 1367 1369 1370 1371 1373 1375 1377 1380 1382 1386 1389 1391 1394 1397 1400 1402 1405 1408 1411 1413 1416 1418 1421 1423 1424 1426 1428 1429 1431 1432 1434 1435 1437 1438 1439 1441 1442 1443 1444 1445 1446 1447 1448 1449 1451 1451 1452 1453
1349 1348 1346 1346 1345 1345 1345 1345 1346 1348 1349 1350 1351 1353 1354 1356 1357 1359 1360 1361 1363 1365 1366 1368 1369 1370 1372 1375 1377 1381 1384 1388 1391 1393 1396 1399 1401 1404 1406 1409 1411 1414 1417 1419 1421 1423 1425 1426 1428 1430 1431 1432 1434 1435 1437 1438 1439 1441 1442 1443 1444 1445 1446 1447 1448 1450 1451 1451 1452
1347 1346 1345 1344 1343 1343 1343 1343 1344 1346 1347 1347 1349 1350 1352 1353 1354 1356 1357 1359 1361 1363 1365 1366 1367 1368 1371 1373 1376 1379 1383 1386 1390 1392 1395 1397 1400 1402 1405 1407 1410 1412 1415 1417 1419 1421 1423 1425 1426 1428 1430 1431 1432 1434 1435 1437 1438 1440 1441 1442 1443 1444 1445 1446 1447 1448 1449 1450 1451
1345 1344 1343 1342 1342 1341 1341 1342 1342 1344 1345 1345 1346 1347 1349 1351 1351 1353 1354 1356 1358 1361 1362 1364 1366 1367 1369 1372 1375 1378 1382 1385 1388 1391 1393 1396 1398 1401 1403 1406 1408 1411 1414 1416 1418 1420 1422 1423 1425 1426 1428 1430 1431 1433 1434 1436 1437 1439 1440 1441 1442 1443 1444 1446 1446 1447 1448 1449 1450
1343 1342 1341 1340 1340 1340 1340 1340 1341 1342 1343 1343 1344 1345 1346 1348 1349 1351 1352 1354 1356 1358 1360 1362 1363 1365 1367 1370 1372 1376 1380 1383 1386 1389 1391 1394 1397 1399 1402 1404 1407 1410 1412 1415 1417 1419 1420 1422 1423 1425 1426 1428 1430 1431 1433 1435 1436 1437 1439 1440 1441 1442 1443 1444 1446 1446 1447 1448 1449
1341 1340 1339 1339 1338 1338 1338 1339 1340 1341 1341 1342 1342 1344 1345 1346 1348 1349 1350 1351 1353 1355 1357 1359 1361 1363 1365 1368 1371 1375 1379 1382 1384 1387 1390 1393 1396 1398 1401 1403 1406 1409 1411 1413 1416 1417 1419 1421 1422 1424 1425 1427 1429 1430 1432 1433 1435 1436 1437 1439 1440 1441 1442 1443 1445 1446 1446 1447 1448
1339 1338 1338 1337 1336 1336 1337 1337 1338 1339 1340 1341 1342 1343 1344 1345 1346 1348 1349 1350 1351 1353 1355 1357 1359 1361 1363 1366 1370 1374 1378 1381 1384 1386 1389 1391 1394 1397 1400 1403 1405 1408 1410 1412 1415 1416 1418 1419 1421 1423 1424 1426 1428 1429 1431 1432 1434 1435 1436 1438 1439 1440 1441 1442 1444 1445 1446 1446 1447
1337 1336 1336 1335 1335 1335 1335 1336 1336 1337 1339 1341 1341 1342 1343 1343 1345 1346 1347 1349 1351 1352 1354 1356 1358 1360 1362 1365 1369 1373 1377 1381 1384 1386 1388 1391 1394 1397 1400 1402 1405 1407 1409 1411 1414 1415 1417 1418 1420 1422 1423 1425 1427 1429 1430 1431 1433 1434 1435 1437 1438 1439 1440 1441 1442 1444 1445 1446 1446
1335 1334 1333 1333 1333 1333 1333 1334 1335 1336 1337 1339 1340 1341 1341 1342 1344 1345 1346 1348 1351 1352 1354 1356 1357 1359 1362 1365 1368 1372 1376 1380 1383 1386 1388 1391 1394 1397 1400 1402 1404 1406 1408 1411 1413 1414 1416 1418 1419 1421 1423 1424 1426 1428 1429 1431 1432 1433 1434 1436 1437 1438 1439 1441 1441 1442 1444 1444 1445